FW1865 Weather Reports


Display with metric or nautical units.
time (UTC)temp
F
wind
direction
speed
MPH
gust
MPH
rain 1hr
in
rain 24hr
in
rain mn
in
humidity
%
barometer
mb
20200403082813 53 141 2.0 5.0 0.02 0.02 0.02 83 1037.3
20200403082331 54 175 3.0 5.0 0.01 0.01 0.01 81 1037.3
20200403081814 54 165 3.0 5.0 0.00 0.00 0.00 80 1037.4
20200403081317 54 152 3.0 8.0 0.00 0.00 0.00 79 1037.4
20200403080820 54 157 3.0 8.0 0.00 0.00 0.00 78 1037.4
20200403080323 54 161 4.0 6.0 0.00 0.00 0.00 78 1037.4
20200403075826 54 130 2.0 6.0 0.00 0.00 0.00 78 1037.4
20200403075329 55 116 3.0 7.0 0.00 0.00 0.00 77 1037.4
20200403074832 55 134 4.0 7.0 0.00 0.00 0.00 77 1037.4
20200403074315 55 159 3.0 6.0 0.00 0.00 0.00 77 1037.4
20200403073817 55 159 3.0 9.0 0.00 0.00 0.00 77 1037.4
20200403073320 55 159 4.0 9.0 0.00 0.00 0.00 76 1037.5
20200403072823 55 141 4.0 7.0 0.00 0.00 0.00 77 1037.5
20200403072322 55 168 3.0 7.0 0.00 0.00 0.00 77 1037.5
20200403071825 55 135 3.0 8.0 0.00 0.00 0.00 77 1037.5
20200403071329 55 171 2.0 5.0 0.00 0.00 0.00 76 1037.4
20200403070831 55 130 2.0 7.0 0.00 0.00 0.00 76 1037.5
20200403070313 55 161 2.0 7.0 0.00 0.00 0.00 75 1037.5
20200403065816 56 173 3.0 9.0 0.00 0.00 0.00 72 1037.4
20200403065319 56 159 3.0 9.0 0.00 0.00 0.00 71 1037.3
20200403064820 56 196 2.0 7.0 0.00 0.00 0.00 70 1037.3
20200403064324 56 107 3.0 6.0 0.00 0.00 0.00 70 1037.4
20200403063826 56 155 2.0 5.0 0.00 0.00 0.00 69 1037.3
20200403063329 56 155 3.0 6.0 0.00 0.00 0.00 69 1037.3
20200403062831 56 135 1.0 6.0 0.00 0.00 0.00 69 1037.3
20200403062331 56 159 2.0 6.0 0.00 0.00 0.00 69 1037.3
20200403061814 56 221 2.0 4.0 0.00 0.00 0.00 69 1037.3
20200403061317 56 158 2.0 4.0 0.00 0.00 0.00 69 1037.3
20200403060820 56 163 2.0 6.0 0.00 0.00 0.00 69 1037.3
20200403060323 56 91 2.0 6.0 0.00 0.00 0.00 69 1037.3
20200403055825 56 138 2.0 6.0 0.00 0.00 0.00 69 1037.3
20200403055328 55 126 3.0 6.0 0.00 0.00 0.00 69 1037.4
20200403054831 55 154 2.0 5.0 0.00 0.00 0.00 70 1037.4
20200403054314 55 138 2.0 3.0 0.00 0.00 0.00 70 1037.4
20200403053817 55 216 0.0 3.0 0.00 0.00 0.00 71 1037.4
20200403053320 55 159 1.0 4.0 0.00 0.00 0.00 70 1037.4
20200403052822 55 164 2.0 5.0 0.00 0.00 0.00 70 1037.4
20200403052322 55 197 3.0 5.0 0.00 0.00 0.00 69 1037.4
20200403051825 56 159 2.0 6.0 0.00 0.00 0.00 69 1037.5
20200403051328 56 162 2.0 7.0 0.00 0.00 0.00 68 1037.4
20200403050813 56 188 3.0 7.0 0.00 0.00 0.00 68 1037.3
20200403050411 56 146 2.0 7.0 0.00 0.00 0.00 68 1037.3
20200403045832 56 188 3.0 7.0 0.00 0.00 0.00 68 1037.4
20200403045314 56 169 3.0 7.0 0.00 0.00 0.00 67 1037.5
20200403044828 57 154 2.0 8.0 0.00 0.00 0.00 67 1037.4
20200403044330 57 152 3.0 8.0 0.00 0.00 0.00 66 1037.5
20200403043813 57 124 3.0 6.0 0.00 0.00 0.00 66 1037.5
20200403043316 57 152 3.0 7.0 0.00 0.00 0.00 66 1037.4
20200403042819 57 145 4.0 7.0 0.00 0.00 0.00 67 1037.4
20200403042313 57 184 3.0 6.0 0.00 0.00 0.00 67 1037.4
20200403041815 57 162 3.0 7.0 0.00 0.00 0.00 66 1037.3
20200403041317 57 160 4.0 9.0 0.00 0.00 0.00 66 1037.4
20200403040820 57 152 3.0 9.0 0.00 0.00 0.00 66 1037.3
20200403040323 57 152 2.0 6.0 0.00 0.00 0.00 66 1037.4
20200403035825 57 128 4.0 6.0 0.00 0.00 0.00 66 1037.4
20200403035328 57 72 3.0 7.0 0.00 0.00 0.00 66 1037.3
20200403034830 57 123 3.0 7.0 0.00 0.00 0.00 66 1037.3
20200403034332 57 130 3.0 8.0 0.00 0.00 0.00 66 1037.2
20200403033813 57 165 3.0 8.0 0.00 0.00 0.00 65 1037.2
20200403033316 57 151 3.0 9.0 0.00 0.00 0.00 65 1037.2
20200403032819 57 154 4.0 9.0 0.00 0.00 0.00 65 1037.2
20200403032319 57 154 4.0 6.0 0.00 0.00 0.00 65 1037.2
20200403031822 57 147 4.0 6.0 0.00 0.00 0.00 65 1037.1
20200403031325 57 192 3.0 7.0 0.00 0.00 0.00 65 1037.1
20200403030827 57 187 4.0 7.0 0.00 0.00 0.00 64 1037.0
20200403030313 58 152 3.0 6.0 0.00 0.00 0.00 64 1037.1
20200403025815 58 161 2.0 7.0 0.00 0.00 0.00 63 1037.0
20200403025318 58 159 4.0 7.0 0.00 0.00 0.00 63 1037.1
20200403024821 58 160 3.0 7.0 0.00 0.00 0.00 63 1037.1
20200403024324 58 116 3.0 6.0 0.00 0.00 0.00 63 1037.0
20200403023827 57 121 2.0 7.0 0.00 0.00 0.00 63 1037.1
20200403023330 57 128 2.0 6.0 0.00 0.00 0.00 64 1037.1
20200403022812 57 125 3.0 7.0 0.00 0.00 0.00 64 1037.1
20200403022330 58 112 2.0 7.0 0.00 0.00 0.00 64 1037.2
20200403021831 58 177 4.0 6.0 0.00 0.00 0.00 64 1037.1
20200403021314 58 159 3.0 7.0 0.00 0.00 0.00 63 1037.1
20200403020816 58 157 4.0 7.0 0.00 0.00 0.00 63 1037.0
20200403020319 58 130 2.0 5.0 0.00 0.00 0.00 64 1036.9
20200403015822 58 155 3.0 7.0 0.00 0.00 0.00 63 1036.9
20200403015324 58 175 3.0 7.0 0.00 0.00 0.00 64 1036.8
20200403014824 58 173 3.0 5.0 0.00 0.00 0.00 63 1036.7
20200403014324 58 172 4.0 5.0 0.00 0.00 0.00 63 1036.7
20200403013824 59 142 1.0 7.0 0.00 0.00 0.00 63 1036.7
20200403013322 59 190 3.0 8.0 0.00 0.00 0.00 60 1036.7
20200403012823 59 171 3.0 8.0 0.00 0.00 0.00 59 1036.6
20200403012322 59 195 3.0 9.0 0.00 0.00 0.00 59 1036.6
20200403011823 59 149 3.0 8.0 0.00 0.00 0.00 59 1036.6
20200403011323 59 178 3.0 8.0 0.00 0.00 0.00 60 1036.4
20200403010826 59 114 1.0 6.0 0.00 0.00 0.00 61 1036.3
20200403010329 59 112 2.0 7.0 0.00 0.00 0.00 60 1036.3
20200403005814 58 124 1.0 7.0 0.00 0.00 0.00 60 1036.4
20200403005317 58 110 1.0 4.0 0.00 0.00 0.00 61 1036.4
20200403004822 59 116 1.0 4.0 0.00 0.00 0.00 60 1036.4
20200403004325 59 109 1.0 4.0 0.00 0.00 0.00 59 1036.4
20200403003829 60 103 1.0 4.0 0.00 0.00 0.00 58 1036.5
20200403003330 60 119 2.0 8.0 0.00 0.00 0.00 58 1036.4
20200403002832 60 130 3.0 8.0 0.00 0.00 0.00 58 1036.4
20200403002330 60 85 2.0 9.0 0.00 0.00 0.00 57 1036.5
20200403001830 60 133 3.0 9.0 0.00 0.00 0.00 58 1036.4
20200403001331 60 162 2.0 9.0 0.00 0.00 0.00 58 1036.3
20200403000813 60 97 2.0 5.0 0.00 0.00 0.00 57 1036.3
20200403000317 61 104 2.0 10.0 0.00 0.00 0.00 57 1036.3
20200402235820 61 100 3.0 10.0 0.00 0.00 0.00 57 1036.2
20200402235321 61 147 2.0 8.0 0.00 0.00 0.00 55 1036.2
20200402234823 62 178 3.0 8.0 0.00 0.00 0.00 55 1036.2
20200402234325 62 236 3.0 7.0 0.00 0.00 0.00 54 1036.1
20200402233828 63 103 3.0 8.0 0.00 0.00 0.00 53 1036.2
20200402233331 63 115 4.0 8.0 0.00 0.00 0.00 51 1036.1
20200402232824 64 112 3.0 11.0 0.00 0.00 0.00 52 1036.1
20200402232322 64 97 3.0 12.0 0.00 0.00 0.00 53 1036.1
20200402231822 64 103 5.0 11.0 0.00 0.00 0.00 52 1036.1
20200402231324 63 160 2.0 10.0 0.00 0.00 0.00 53 1036.2
20200402230824 63 133 3.0 10.0 0.00 0.00 0.00 52 1036.1
20200402230324 63 135 3.0 10.0 0.00 0.00 0.00 52 1036.0
20200402225824 63 119 4.0 9.0 0.00 0.00 0.00 52 1036.1
20200402225328 63 98 4.0 10.0 0.00 0.00 0.00 52 1036.0
20200402224826 63 132 3.0 11.0 0.00 0.00 0.00 54 1036.1
20200402224324 63 117 4.0 11.0 0.00 0.00 0.00 53 1036.0
20200402223824 62 128 3.0 10.0 0.00 0.00 0.00 53 1036.1
20200402223330 62 93 3.0 10.0 0.00 0.00 0.00 54 1036.1
20200402222814 62 135 5.0 10.0 0.00 0.00 0.00 53 1036.0
20200402222316 62 74 4.0 10.0 0.00 0.00 0.00 53 1036.1
20200402221814 63 120 4.0 13.0 0.00 0.00 0.00 52 1036.1
20200402221314 63 225 4.0 13.0 0.00 0.00 0.00 52 1036.1
20200402220812 63 129 4.0 8.0 0.00 0.00 0.00 52 1036.1
20200402220332 63 105 4.0 13.0 0.00 0.00 0.00 53 1036.0
20200402215832 63 159 6.0 13.0 0.00 0.00 0.00 52 1036.0
20200402215312 63 115 4.0 7.0 0.00 0.00 0.00 54 1036.1
20200402214832 62 95 4.0 12.0 0.00 0.00 0.00 53 1036.1
20200402214312 63 155 4.0 12.0 0.00 0.00 0.00 52 1036.2
20200402213831 63 134 5.0 12.0 0.00 0.00 0.00 53 1036.2
20200402213312 63 97 5.0 15.0 0.00 0.00 0.00 51 1036.2
20200402212813 63 147 5.0 12.0 0.00 0.00 0.00 52 1036.3
20200402212331 62 100 5.0 12.0 0.00 0.00 0.00 53 1036.2
20200402211831 62 99 3.0 9.0 0.00 0.00 0.00 54 1036.2
20200402211331 62 90 4.0 13.0 0.00 0.00 0.00 53 1036.5
20200402210814 63 133 7.0 13.0 0.00 0.00 0.00 51 1036.6
20200402210317 63 215 2.0 7.0 0.00 0.00 0.00 53 1036.7
20200402205820 63 82 3.0 12.0 0.00 0.00 0.00 53 1036.6
20200402205322 63 95 4.0 12.0 0.00 0.00 0.00 53 1036.6
20200402204825 63 147 5.0 9.0 0.00 0.00 0.00 53 1036.5
20200402204328 63 76 4.0 9.0 0.00 0.00 0.00 54 1036.5
20200402203829 63 114 3.0 8.0 0.00 0.00 0.00 53 1036.6
20200402203331 62 78 4.0 6.0 0.00 0.00 0.00 53 1036.6
20200402202813 62 95 3.0 6.0 0.00 0.00 0.00 55 1036.5
20200402202314 62 118 3.0 6.0 0.00 0.00 0.00 55 1036.6
20200402201816 62 110 4.0 7.0 0.00 0.00 0.00 54 1036.7
20200402201319 62 174 4.0 7.0 0.00 0.00 0.00 54 1036.7
20200402200820 62 122 4.0 8.0 0.00 0.00 0.00 56 1036.8
20200402200322 62 96 4.0 8.0 0.00 0.00 0.00 55 1036.9
20200402195824 62 104 4.0 10.0 0.00 0.00 0.00 54 1036.9
20200402195328 61 114 5.0 10.0 0.00 0.00 0.00 56 1037.0
20200402194811 61 131 5.0 9.0 0.00 0.00 0.00 56 1037.1
20200402194313 61 113 4.0 11.0 0.00 0.00 0.00 56 1037.0
20200402193816 60 152 3.0 11.0 0.00 0.00 0.00 58 1037.0
20200402193319 60 120 4.0 10.0 0.00 0.00 0.00 58 1037.2
20200402192822 60 130 4.0 14.0 0.00 0.00 0.00 56 1037.3
20200402192324 60 157 7.0 14.0 0.00 0.00 0.00 56 1037.2
20200402191825 59 126 5.0 10.0 0.00 0.00 0.00 57 1037.3
20200402191329 59 120 3.0 8.0 0.00 0.00 0.00 58 1037.2
20200402190813 59 55 4.0 10.0 0.00 0.00 0.00 57 1037.3
20200402190317 59 40 4.0 9.0 0.00 0.00 0.00 57 1037.4
20200402185818 59 137 4.0 7.0 0.00 0.00 0.00 58 1037.3
20200402185319 58 131 3.0 8.0 0.00 0.00 0.00 61 1037.5
20200402184822 58 89 3.0 8.0 0.00 0.00 0.00 60 1037.5
20200402184326 58 140 3.0 13.0 0.00 0.00 0.00 60 1037.6
20200402183827 58 123 4.0 13.0 0.00 0.00 0.00 59 1037.6
20200402183329 57 126 4.0 9.0 0.00 0.00 0.00 59 1037.7
20200402182827 57 127 3.0 9.0 0.00 0.00 0.00 60 1037.8
20200402182324 57 111 4.0 9.0 0.00 0.00 0.00 60 1037.8
20200402181825 56 139 3.0 8.0 0.00 0.00 0.00 60 1037.9
20200402181326 56 109 5.0 8.0 0.00 0.00 0.00 60 1038.0
20200402180827 56 128 4.0 16.0 0.00 0.00 0.00 62 1038.2
20200402180328 56 118 6.0 16.0 0.00 0.00 0.00 59 1038.3
20200402175829 56 114 5.0 12.0 0.00 0.00 0.00 60 1038.4
20200402175329 56 125 5.0 12.0 0.00 0.00 0.00 60 1038.4
20200402174831 56 130 3.0 13.0 0.00 0.00 0.00 61 1038.4
20200402174312 56 120 6.0 13.0 0.00 0.00 0.00 59 1038.3
20200402173813 56 178 5.0 10.0 0.00 0.00 0.00 60 1038.4
20200402173314 55 112 3.0 12.0 0.00 0.00 0.00 61 1038.5
20200402172816 55 97 6.0 14.0 0.00 0.00 0.00 61 1038.6
20200402172331 55 135 7.0 16.0 0.00 0.00 0.00 60 1038.5
20200402171830 55 96 5.0 9.0 0.00 0.00 0.00 62 1038.6
20200402171331 54 121 3.0 13.0 0.00 0.00 0.00 61 1038.6
20200402170831 54 136 3.0 13.0 0.00 0.00 0.00 62 1038.6
20200402170312 54 107 4.0 9.0 0.00 0.00 0.00 62 1038.6
20200402165813 54 115 3.0 9.0 0.00 0.00 0.00 62 1038.7
20200402165316 53 161 3.0 8.0 0.00 0.00 0.00 63 1038.8
20200402164818 53 116 4.0 8.0 0.00 0.00 0.00 63 1038.8
20200402164320 53 109 4.0 8.0 0.00 0.00 0.00 64 1038.8
20200402163823 53 130 3.0 12.0 0.00 0.00 0.00 64 1038.9
20200402163324 53 115 5.0 12.0 0.00 0.00 0.00 63 1038.8
20200402162826 53 123 4.0 11.0 0.00 0.00 0.00 64 1038.7
20200402162326 53 123 5.0 15.0 0.00 0.00 0.00 64 1038.7
20200402161829 53 216 5.0 12.0 0.00 0.00 0.00 64 1038.7
20200402161331 53 104 5.0 12.0 0.00 0.00 0.00 63 1038.7
20200402160812 53 115 4.0 9.0 0.00 0.00 0.00 64 1038.8
20200402160315 52 133 4.0 7.0 0.00 0.00 0.00 65 1038.7
20200402155817 52 104 4.0 7.0 0.00 0.00 0.00 65 1038.8
20200402155319 52 123 4.0 10.0 0.00 0.00 0.00 66 1038.8
20200402154821 52 135 4.0 10.0 0.00 0.00 0.00 66 1038.9
20200402154324 52 96 3.0 7.0 0.00 0.00 0.00 67 1038.9
20200402153827 52 117 4.0 14.0 0.00 0.00 0.00 66 1039.0
20200402153328 51 111 6.0 14.0 0.00 0.00 0.00 66 1038.9
20200402152829 51 113 5.0 11.0 0.00 0.00 0.00 66 1039.0
20200402152329 51 156 4.0 12.0 0.00 0.00 0.00 68 1039.0
20200402151828 51 138 6.0 12.0 0.00 0.00 0.00 67 1039.0
20200402151312 51 140 6.0 14.0 0.00 0.00 0.00 67 1039.0
20200402150817 51 116 7.0 14.0 0.00 0.00 0.00 66 1039.1
20200402150322 51 93 6.0 11.0 0.00 0.00 0.00 67 1039.1
20200402145827 51 111 5.0 13.0 0.00 0.00 0.00 68 1039.2
20200402145328 51 181 8.0 13.0 0.00 0.00 0.00 67 1039.2
20200402144830 50 153 5.0 10.0 0.00 0.00 0.00 69 1039.1
20200402144313 50 142 5.0 10.0 0.00 0.00 0.00 69 1039.2
20200402143815 50 180 4.0 12.0 0.00 0.00 0.00 69 1039.2
20200402143319 50 113 6.0 12.0 0.00 0.00 0.00 69 1039.1
20200402142820 50 68 5.0 16.0 0.00 0.00 0.00 70 1039.3
20200402142314 50 159 4.0 13.0 0.00 0.00 0.00 71 1039.2
20200402141815 49 119 5.0 14.0 0.00 0.00 0.00 70 1039.2
20200402141318 49 112 6.0 14.0 0.00 0.00 0.00 70 1039.4
20200402140823 49 105 4.0 12.0 0.00 0.00 0.00 71 1039.3
20200402140329 49 168 6.0 13.0 0.00 0.00 0.00 71 1039.3
20200402135813 49 119 5.0 12.0 0.00 0.00 0.00 71 1039.4
20200402135319 49 111 5.0 12.0 0.00 0.00 0.00 71 1039.5
20200402134822 49 128 5.0 14.0 0.00 0.00 0.00 70 1039.4
20200402134324 49 104 6.0 14.0 0.00 0.00 0.00 70 1039.3
20200402133826 49 90 7.0 12.0 0.00 0.00 0.00 70 1039.4
20200402133312 49 120 5.0 15.0 0.00 0.00 0.00 71 1039.5
20200402132817 49 147 7.0 15.0 0.00 0.00 0.00 70 1039.6
20200402132317 49 129 4.0 10.0 0.00 0.00 0.00 71 1039.7
20200402131821 49 129 5.0 10.0 0.00 0.00 0.00 72 1039.7
20200402131323 48 150 4.0 12.0 0.00 0.00 0.00 72 1039.7
20200402130823 48 133 4.0 11.0 0.00 0.00 0.00 73 1039.8
20200402130325 47 138 4.0 9.0 0.00 0.00 0.00 73 1039.8
20200402125825 47 121 4.0 11.0 0.00 0.00 0.00 73 1039.7
20200402125328 47 197 5.0 13.0 0.00 0.00 0.00 73 1039.7
20200402124832 47 156 5.0 13.0 0.00 0.00 0.00 73 1039.6
20200402124318 47 126 4.0 11.0 0.00 0.00 0.00 73 1039.7
20200402123821 47 142 3.0 11.0 0.00 0.00 0.00 73 1039.6
20200402123325 47 183 5.0 11.0 0.00 0.00 0.00 72 1039.6
20200402122829 47 132 4.0 11.0 0.00 0.00 0.00 72 1039.6
20200402122330 47 140 4.0 11.0 0.00 0.00 0.00 72 1039.5
20200402121814 47 127 5.0 13.0 0.00 0.00 0.00 71 1039.6
20200402121317 47 112 4.0 13.0 0.00 0.00 0.00 71 1039.5
20200402120819 48 104 6.0 11.0 0.00 0.00 0.00 71 1039.5
20200402120323 48 140 4.0 11.0 0.00 0.00 0.00 71 1039.4
20200402115824 48 104 6.0 11.0 0.00 0.00 0.00 70 1039.4
20200402115326 48 149 4.0 9.0 0.00 0.00 0.00 71 1039.3
20200402114830 48 95 4.0 9.0 0.00 0.00 0.00 71 1039.3
20200402114332 48 128 5.0 9.0 0.00 0.00 0.00 70 1039.3
20200402113813 48 132 3.0 8.0 0.00 0.00 0.00 70 1039.3
20200402113314 48 104 4.0 8.0 0.00 0.00 0.00 71 1039.2
20200402112813 48 123 2.0 9.0 0.00 0.00 0.00 71 1039.2
20200402112330 48 129 4.0 9.0 0.00 0.00 0.00 71 1039.3
20200402111828 48 124 3.0 9.0 0.00 0.00 0.00 71 1039.3
20200402111327 48 126 4.0 9.0 0.00 0.00 0.00 71 1039.3
20200402110826 48 139 3.0 9.0 0.00 0.00 0.00 71 1039.3
20200402110325 48 128 4.0 7.0 0.00 0.00 0.00 71 1039.3
20200402105824 48 117 3.0 7.0 0.00 0.00 0.00 71 1039.3
20200402105323 48 139 3.0 10.0 0.00 0.00 0.00 70 1039.3
20200402104826 48 188 5.0 10.0 0.00 0.00 0.00 70 1039.2
20200402104328 48 137 3.0 8.0 0.00 0.00 0.00 70 1039.3
20200402103831 48 146 3.0 9.0 0.00 0.00 0.00 70 1039.4
20200402103313 48 136 4.0 9.0 0.00 0.00 0.00 70 1039.3
20200402102815 48 147 4.0 8.0 0.00 0.00 0.00 70 1039.2
20200402102313 48 134 3.0 8.0 0.00 0.00 0.00 70 1039.2
20200402101814 48 145 3.0 8.0 0.00 0.00 0.00 70 1039.2
20200402101326 48 165 2.0 8.0 0.00 0.00 0.00 70 1039.2
20200402100821 48 147 3.0 8.0 0.00 0.00 0.00 70 1039.3
20200402100324 48 138 3.0 8.0 0.00 0.00 0.00 71 1039.2
20200402095827 48 136 4.0 8.0 0.00 0.00 0.00 71 1039.3
20200402095329 47 130 4.0 7.0 0.00 0.00 0.00 71 1039.2
20200402094831 47 114 2.0 7.0 0.00 0.00 0.00 72 1039.3
20200402094331 48 144 4.0 7.0 0.00 0.00 0.00 72 1039.3
20200402093831 48 166 3.0 7.0 0.00 0.00 0.00 71 1039.3
20200402093313 48 173 4.0 8.0 0.00 0.00 0.00 71 1039.2
20200402092813 48 149 5.0 8.0 0.00 0.00 0.00 72 1039.2
20200402092332 47 151 2.0 7.0 0.00 0.00 0.00 73 1039.0
20200402091831 47 130 3.0 8.0 0.00 0.00 0.00 73 1039.0
20200402091332 47 161 3.0 8.0 0.00 0.00 0.00 73 1039.1
20200402090813 47 159 3.0 8.0 0.00 0.00 0.00 73 1039.1
20200402090314 47 157 3.0 8.0 0.00 0.00 0.00 73 1039.1
20200402085817 47 155 3.0 9.0 0.00 0.00 0.00 73 1039.2
20200402085320 47 149 4.0 9.0 0.00 0.00 0.00 73 1039.1
20200402084822 47 173 3.0 9.0 0.00 0.00 0.00 73 1039.1
20200402084321 47 163 3.0 8.0 0.00 0.00 0.00 73 1039.0
20200402083821 47 197 4.0 7.0 0.00 0.00 0.00 73 1039.0
20200402083323 47 155 4.0 6.0 0.00 0.00 0.00 73 1039.0